McComb, MS

9:28 PM CDT on October 19, 2017 (GMT -0500)
McComb-Pike County-Lewis

Weather History for KMCB - November, 2010

Change the Weather History Date:

Wednesday, November 24, 2010

  Actual Average Record
Temperature  
Mean Temperature 71 °F -  
Max Temperature 78 °F 66 °F 80 °F (1973)
Min Temperature 63 °F 42 °F 20 °F (1970)
Cooling Degree Days 6    
Growing Degree Days 21 (Base 50)    
Moisture  
Dew Point 65 °F    
Average Humidity 91    
Maximum Humidity 100    
Minimum Humidity 60    
Precipitation  
Precipitation 0.00 in - - ()
Sea Level Pressure  
Sea Level Pressure 30.03 in    
Wind  
Wind Speed 5 mph (South)    
Max Wind Speed 16 mph    
Max Gust Speed 23 mph    
Visibility 6 miles    
Events Fog    
Averages and records for this station are not official NWS values.
T = Trace of Precipitation, MM = Missing Value Source: NWS Daily Summary

Daily Weather History Graph

Daily Weather History Graph

Search for Another Location

Airport or City:

Trip Planner

Search our weather history database for the weather conditions in past years. The results will help you decide how hot, cold, wet, or windy it might be!

Date:

Astronomy

Nov. 24, 2010 Rise Set
Actual Time 6:36 AM CST 5:00 PM CST
Civil Twilight 6:10 AM CST 5:26 PM CST
Nautical Twilight 5:41 AM CST 5:55 PM CST
Astronomical Twilight 5:12 AM CST 6:24 PM CST
Moon 7:50 PM CST (11/24) 9:20 AM CST (11/24)
Length of Visible Light 11h 15m
Length of Day
10h 23m
Waning Gibbous, 90% of the Moon is Illuminated
Nov 24
Waning Gibbous
Nov 28
Last Quarter
Dec 5
New
Dec 13
First Quarter
Dec 21
Full

Hourly Weather History & Observations

Time (CST) Temp. Dew Point Humidity Pressure Visibility Wind Dir Wind Speed Gust Speed Precip Events Conditions
12:07 AM 66.2 °F 66.2 °F 100% 30.08 in 2.0 mi Calm Calm - N/A   Overcast
12:20 AM 66.2 °F 66.2 °F 100% 30.08 in 1.5 mi South 3.5 mph - N/A   Overcast
12:30 AM 66.2 °F 66.2 °F 100% 30.07 in 2.0 mi South 3.5 mph - N/A   Overcast
12:44 AM 66.2 °F 66.2 °F 100% 30.07 in 4.0 mi South 5.8 mph - N/A   Overcast
12:53 AM 66.9 °F 66.9 °F 100% 30.06 in 4.0 mi SSW 5.8 mph - N/A   Overcast
12:59 AM 66.2 °F 66.2 °F 100% 30.07 in 2.5 mi South 6.9 mph - N/A   Overcast
1:08 AM 66.2 °F 66.2 °F 100% 30.07 in 0.8 mi South 6.9 mph - N/A   Overcast
1:44 AM 66.2 °F 66.2 °F 100% 30.07 in 1.0 mi South 4.6 mph - N/A   Overcast
1:53 AM 66.9 °F 66.9 °F 100% 30.06 in 0.8 mi SSE 4.6 mph - N/A   Overcast
2:03 AM 66.2 °F 66.2 °F 100% 30.06 in 1.2 mi South 3.5 mph - N/A   Overcast
2:16 AM 66.2 °F 66.2 °F 100% 30.06 in 0.5 mi South 6.9 mph - N/A Fog Fog
2:36 AM 66.2 °F 66.2 °F 100% 30.05 in 2.0 mi South 5.8 mph - N/A   Overcast
2:53 AM 66.0 °F 66.0 °F 100% 30.04 in 5.0 mi South 6.9 mph - N/A   Overcast
3:01 AM 66.2 °F 66.2 °F 100% 30.06 in 4.0 mi South 5.8 mph - N/A   Overcast
3:38 AM 66.2 °F 66.2 °F 100% 30.06 in 7.0 mi South 6.9 mph - N/A   Overcast
3:53 AM 66.0 °F 66.0 °F 100% 30.04 in 6.0 mi South 4.6 mph - N/A   Overcast
4:53 AM 66.0 °F 66.0 °F 100% 30.04 in 4.0 mi South 3.5 mph - N/A   Overcast
5:04 AM 66.2 °F 66.2 °F 100% 30.05 in 3.0 mi Calm Calm - N/A   Overcast
5:16 AM 66.2 °F 66.2 °F 100% 30.05 in 3.0 mi Calm Calm - N/A   Overcast
5:25 AM 66.2 °F 66.2 °F 100% 30.05 in 3.0 mi Calm Calm - N/A   Overcast
5:44 AM 66.2 °F 66.2 °F 100% 30.05 in 3.0 mi Calm Calm - N/A   Overcast
6:17 AM 66.2 °F 66.2 °F 100% 30.06 in 4.0 mi SSE 4.6 mph - N/A   Overcast
6:53 AM 66.0 °F 64.9 °F 96% 30.06 in 4.0 mi SSE 4.6 mph - N/A   Overcast
7:37 AM 66.2 °F 64.4 °F 94% 30.07 in 4.0 mi SSE 3.5 mph - N/A   Overcast
7:53 AM 66.0 °F 66.0 °F 100% 30.06 in 5.0 mi SSE 4.6 mph - N/A   Overcast
8:08 AM 66.2 °F 66.2 °F 100% 30.08 in 5.0 mi South 6.9 mph - N/A   Overcast
8:53 AM 68.0 °F 66.9 °F 96% 30.08 in 9.0 mi SSW 6.9 mph - N/A   Overcast
9:10 AM 69.8 °F 66.2 °F 88% 30.09 in 10.0 mi South 10.4 mph - N/A   Mostly Cloudy
9:53 AM 72.0 °F 64.9 °F 78% 30.06 in 10.0 mi South 15.0 mph - N/A   Mostly Cloudy
10:12 AM 73.4 °F 64.4 °F 73% 30.07 in 10.0 mi South 12.7 mph - N/A   Scattered Clouds
10:53 AM 75.0 °F 64.9 °F 71% 30.05 in 10.0 mi SSW 11.5 mph - N/A   Clear
11:53 AM 77.0 °F 63.0 °F 62% 30.01 in 10.0 mi SSE 16.1 mph 23.0 mph N/A   Partly Cloudy
12:53 PM 77.0 °F 62.1 °F 60% 29.99 in 10.0 mi South 12.7 mph - N/A   Scattered Clouds
1:53 PM 78.1 °F 63.0 °F 60% 29.96 in 10.0 mi South 11.5 mph 19.6 mph N/A   Scattered Clouds
2:53 PM 75.9 °F 63.0 °F 64% 29.94 in 10.0 mi South 12.7 mph - N/A   Partly Cloudy
3:53 PM 75.0 °F 64.0 °F 69% 29.94 in 10.0 mi South 10.4 mph - N/A   Scattered Clouds
4:53 PM 72.0 °F 62.1 °F 71% 29.93 in 10.0 mi SSE 12.7 mph - N/A   Clear
5:53 PM 70.0 °F 63.0 °F 78% 29.94 in 10.0 mi SSE 10.4 mph - N/A   Clear
6:53 PM 68.0 °F 63.0 °F 84% 29.94 in 10.0 mi SSE 10.4 mph - N/A   Clear
7:53 PM 66.9 °F 62.1 °F 84% 29.94 in 10.0 mi SSE 10.4 mph - N/A   Clear
8:53 PM 66.0 °F 62.1 °F 87% 29.95 in 10.0 mi South 10.4 mph - N/A   Clear
9:53 PM 64.0 °F 62.1 °F 93% 29.95 in 10.0 mi SSE 5.8 mph - N/A   Scattered Clouds
10:02 PM 64.4 °F 62.6 °F 94% 29.96 in 10.0 mi SSE 4.6 mph - N/A   Mostly Cloudy
10:35 PM 64.4 °F 62.6 °F 94% 29.96 in 10.0 mi SSE 6.9 mph - N/A   Scattered Clouds
10:53 PM 64.0 °F 63.0 °F 96% 29.95 in 10.0 mi SSE 6.9 mph - N/A   Partly Cloudy
11:53 PM 63.0 °F 62.1 °F 97% 29.95 in 10.0 mi SSE 3.5 mph - N/A   Mostly Cloudy